Weather History for Blakely, GA

Change the Weather History Date:

Saturday, April 20, 2013

  Actual Average (KDHN) Record (KDHN)
Temperature  
Mean Temperature 56 °F 67 °F  
Max Temperature 68 °F 79 °F 91 °F (2006)
Min Temperature 44 °F 54 °F 39 °F (1953)
Degree Days  
Heating Degree Days 9 2  
Month to date heating degree days 60  
Since 1 July heating degree days 1830  
Cooling Degree Days 0 3  
Month to date cooling degree days 44  
Year to date cooling degree days 75  
Growing Degree Days 6 (Base 50)    
Moisture  
Dew Point 44 °F    
Average Humidity 72    
Maximum Humidity 100    
Minimum Humidity 37    
Precipitation  
Precipitation 0.00 in 0.13 in 0.37 in (1935)
Month to date precipitation 2.64  
Year to date precipitation 17.92  
Sea Level Pressure  
Sea Level Pressure 30.17 in    
Wind  
Wind Speed 4 mph (North)    
Max Wind Speed 13 mph    
Max Gust Speed 21 mph    
Visibility 10 miles    
Events      
T = Trace of Precipitation, MM = Missing Value Source: NWS Daily Summary

Daily Weather History Graph

Daily Weather History Graph

Search for Another Location

Airport:

Trip Planner

Search our weather history database for the weather conditions in past years. The results will help you decide how hot, cold, wet, or windy it might be!

Date:

Astronomy

Apr. 20, 2013 Rise Set
Actual Time 7:05 AM EDT 8:11 PM EDT
Civil Twilight 6:40 AM EDT 8:37 PM EDT
Nautical Twilight 6:10 AM EDT 9:06 PM EDT
Astronomical Twilight 5:39 AM EDT 9:37 PM EDT
Moon 3:13 PM EDT (4/20) 3:33 AM EDT (4/20)
Length of Visible Light 13h 56m
Length of Day
13h 06m
Waxing Gibbous, 71% of the Moon is Illuminated
Apr 20
Waxing Gibbous
Apr 25
Full
May 2
Last Quarter
May 9
New
May 18
First Quarter

Hourly Weather History & Observations

Time (EDT) Temp. Windchill Dew Point Humidity Pressure Visibility Wind Dir Wind Speed Gust Speed Precip Events Conditions
12:15 AM 50.0 °F - 50.0 °F 100% 30.13 in 10.0 mi NW 3.5 mph - N/A   Clear
12:35 AM 50.0 °F - 50.0 °F 100% 30.13 in 10.0 mi Calm Calm - N/A   Clear
12:55 AM 50.0 °F - 48.2 °F 94% 30.12 in 10.0 mi NW 4.6 mph - N/A   Clear
1:15 AM 50.0 °F - 48.2 °F 94% 30.14 in 10.0 mi Calm Calm - N/A   Clear
1:35 AM 50.0 °F - 48.2 °F 94% 30.13 in 10.0 mi Calm Calm - N/A   Clear
1:55 AM 50.0 °F - 48.2 °F 94% 30.13 in 10.0 mi NW 3.5 mph - N/A   Clear
2:35 AM 50.0 °F - 48.2 °F 94% 30.12 in 10.0 mi Calm Calm - N/A   Clear
2:55 AM 48.2 °F - 48.2 °F 100% 30.11 in 10.0 mi Calm Calm - N/A   Clear
3:15 AM 48.2 °F - 46.4 °F 93% 30.11 in 10.0 mi NW 3.5 mph - N/A   Clear
3:35 AM 48.2 °F - 46.4 °F 93% 30.11 in 10.0 mi Calm Calm - N/A   Clear
3:55 AM 48.2 °F - 46.4 °F 93% 30.12 in 10.0 mi NNW 3.5 mph - N/A   Clear
4:15 AM 46.4 °F - 46.4 °F 100% 30.11 in 10.0 mi Calm Calm - N/A   Clear
4:35 AM 46.4 °F - 46.4 °F 100% 30.13 in 10.0 mi Calm Calm - N/A   Clear
4:55 AM 46.4 °F - 46.4 °F 100% 30.13 in 10.0 mi Calm Calm - N/A   Clear
5:15 AM 46.4 °F - 44.6 °F 93% 30.13 in 10.0 mi Calm Calm - N/A   Clear
5:35 AM 46.4 °F 45.2 °F 44.6 °F 93% 30.14 in 10.0 mi North 3.5 mph - N/A   Clear
5:55 AM 46.4 °F 44.3 °F 44.6 °F 93% 30.16 in 10.0 mi North 4.6 mph - N/A   Clear
6:15 AM 46.4 °F 42.4 °F 44.6 °F 93% 30.15 in 10.0 mi North 8.1 mph - N/A   Clear
6:35 AM 44.6 °F 42.2 °F 42.8 °F 93% 30.17 in 10.0 mi North 4.6 mph - N/A   Clear
6:55 AM 44.6 °F 43.1 °F 42.8 °F 93% 30.17 in 10.0 mi North 3.5 mph - N/A   Clear
7:15 AM 44.6 °F 42.2 °F 42.8 °F 93% 30.19 in 10.0 mi North 4.6 mph - N/A   Clear
7:35 AM 44.6 °F - 41.0 °F 87% 30.20 in 10.0 mi Calm Calm - N/A   Clear
7:55 AM 44.6 °F 43.1 °F 41.0 °F 87% 30.20 in 10.0 mi North 3.5 mph - N/A   Clear
8:15 AM 44.6 °F 43.1 °F 42.8 °F 93% 30.20 in 10.0 mi North 3.5 mph - N/A   Clear
8:35 AM 46.4 °F 43.5 °F 41.0 °F 81% 30.21 in 10.0 mi North 5.8 mph - N/A   Clear
8:55 AM 46.4 °F 42.9 °F 41.0 °F 81% 30.22 in 10.0 mi NNE 6.9 mph - N/A   Clear
9:15 AM 50.0 °F - 41.0 °F 71% 30.22 in 10.0 mi NNE 8.1 mph 18.4 mph N/A   Clear
9:35 AM 51.8 °F - 41.0 °F 67% 30.22 in 10.0 mi North 10.4 mph 16.1 mph N/A   Clear
9:55 AM 51.8 °F - 41.0 °F 67% 30.22 in 10.0 mi North 11.5 mph 20.7 mph N/A   Clear
10:15 AM 51.8 °F - 41.0 °F 67% 30.22 in 10.0 mi North 12.7 mph 17.3 mph N/A   Clear
10:35 AM 53.6 °F - 39.2 °F 58% 30.23 in 10.0 mi NNE 9.2 mph - N/A   Clear
11:15 AM 55.4 °F - 37.4 °F 51% 30.24 in 10.0 mi NNE 10.4 mph 20.7 mph N/A   Clear
11:35 AM 59.0 °F - 37.4 °F 45% 30.24 in 10.0 mi NE 11.5 mph 19.6 mph N/A   Clear
11:55 AM 59.0 °F - 39.2 °F 48% 30.23 in 10.0 mi North 11.5 mph 17.3 mph N/A   Clear
12:15 PM 60.8 °F - 41.0 °F 48% 30.23 in 10.0 mi NNE 9.2 mph 16.1 mph N/A   Clear
12:35 PM 60.8 °F - 41.0 °F 48% 30.22 in 10.0 mi NNE 12.7 mph 17.3 mph N/A   Clear
12:55 PM 60.8 °F - 41.0 °F 48% 30.22 in 10.0 mi North 8.1 mph 16.1 mph N/A   Clear
1:15 PM 62.6 °F - 41.0 °F 45% 30.22 in 10.0 mi NNE 10.4 mph 16.1 mph N/A   Clear
1:35 PM 62.6 °F - 39.2 °F 42% 30.21 in 10.0 mi North 8.1 mph - N/A   Clear
1:55 PM 62.6 °F - 37.4 °F 39% 30.20 in 10.0 mi NNE 6.9 mph - N/A   Clear
2:15 PM 64.4 °F - 37.4 °F 37% 30.20 in 10.0 mi NNE 9.2 mph - N/A   Clear
2:35 PM 64.4 °F - 37.4 °F 37% 30.19 in 10.0 mi NE 8.1 mph 16.1 mph N/A   Clear
2:55 PM 66.2 °F - 41.0 °F 40% 30.18 in 10.0 mi NNE 9.2 mph - N/A   Clear
3:15 PM 66.2 °F - 41.0 °F 40% 30.17 in 10.0 mi North 5.8 mph - N/A   Clear
3:35 PM 66.2 °F - 39.2 °F 37% 30.17 in 10.0 mi NNE 6.9 mph - N/A   Clear
3:55 PM 66.2 °F - 41.0 °F 40% 30.16 in 10.0 mi NNE 5.8 mph - N/A   Clear
4:15 PM 68.0 °F - 41.0 °F 37% 30.16 in 10.0 mi North 4.6 mph - N/A   Clear
4:35 PM 68.0 °F - 41.0 °F 37% 30.15 in 10.0 mi NE 6.9 mph - N/A   Clear
4:55 PM 68.0 °F - 42.8 °F 40% 30.14 in 10.0 mi North 5.8 mph - N/A   Clear
5:15 PM 68.0 °F - 42.8 °F 40% 30.14 in 10.0 mi North 4.6 mph - N/A   Clear
5:35 PM 68.0 °F - 42.8 °F 40% 30.14 in 10.0 mi NNE 4.6 mph - N/A   Clear
5:55 PM 68.0 °F - 42.8 °F 40% 30.15 in 10.0 mi Calm Calm - N/A   Clear
6:15 PM 68.0 °F - 42.8 °F 40% 30.15 in 10.0 mi Calm Calm - N/A   Clear
6:35 PM 68.0 °F - 42.8 °F 40% 30.14 in 10.0 mi Calm Calm - N/A   Clear
6:55 PM 68.0 °F - 42.8 °F 40% 30.14 in 10.0 mi Calm Calm - N/A   Clear
7:15 PM 66.2 °F - 42.8 °F 43% 30.15 in 10.0 mi Calm Calm - N/A   Clear
7:35 PM 64.4 °F - 44.6 °F 49% 30.15 in 10.0 mi Calm Calm - N/A   Clear
7:55 PM 60.8 °F - 50.0 °F 68% 30.15 in 10.0 mi Calm Calm - N/A   Clear
8:15 PM 59.0 °F - 50.0 °F 72% 30.17 in 10.0 mi Calm Calm - N/A   Clear
8:35 PM 57.2 °F - 50.0 °F 77% 30.17 in 10.0 mi Calm Calm - N/A   Clear
8:55 PM 55.4 °F - 50.0 °F 82% 30.18 in 10.0 mi Calm Calm - N/A   Clear
9:15 PM 53.6 °F - 50.0 °F 88% 30.19 in 10.0 mi Calm Calm - N/A   Clear
9:35 PM 51.8 °F - 50.0 °F 94% 30.20 in 10.0 mi Calm Calm - N/A   Clear
9:55 PM 51.8 °F - 50.0 °F 94% 30.20 in 10.0 mi Calm Calm - N/A   Clear
10:15 PM 51.8 °F - 50.0 °F 94% 30.21 in 10.0 mi Calm Calm - N/A   Clear
10:35 PM 50.0 °F - 50.0 °F 100% 30.21 in 10.0 mi Calm Calm - N/A   Clear
10:55 PM 50.0 °F - 48.2 °F 94% 30.22 in 10.0 mi Calm Calm - N/A   Clear
11:15 PM 48.2 °F - 48.2 °F 100% 30.22 in 10.0 mi Calm Calm - N/A   Clear
11:35 PM 48.2 °F - 48.2 °F 100% 30.22 in 10.0 mi Calm Calm - N/A   Clear
11:55 PM 46.4 °F - 46.4 °F 100% 30.22 in 10.0 mi Calm Calm - N/A   Clear